Terminal Aerodrome Forecast
Issued by NWS

Home | Current Version | Previous Version | Graphics & Text | Print | Product List | Glossary On
Versions: 1 2 3 4 5 6 7 8 9 10 11 12 13 14 15 16 17 18 19 20 21 22 23
462
FTUS43 KABR 241321 AAB
TAFPIR
TAF AMD
KPIR 241321Z 2413/2512 32018KT P6SM -RA VCSH BKN008 BKN110
     FM241430 33015G23KT P6SM BKN008
     FM250100 35011KT P6SM SCT015 SCT250
     FM250300 02009KT P6SM OVC015=

USA.gov is the U.S. government's official web portal to all federal, state and local government web resources and services.